Home > Weather > Diego Garcia > Past weeks

Flag for British Indian Ocean Territory Weather for the Past 2 Weeks in Diego Garcia, British Indian Ocean Territory

Now
88 °F

Partly sunny.


Feels Like: 102 °F
Forecast: 85 / 89 °F
Wind: 2 mph from North

Location: Male Airport

Current Time: Apr 29, 2016 at 10:27:39 AM

Latest Report: Apr 29, 2016 at 9:00 AM


Visibility: N/A

Pressure: 29.83 "Hg

Humidity: 75%

Dew Point: 79 °F

Location of Diego GarciaLocation

Historic Weather in Diego Garcia — Graph

°F

Diego Garcia Temperature Yesterday

Maximum temperature yesterday: 91 °F (at 11:00 AM)
Minimum temperature yesterday: 86 °F (at 7:00 PM)
Average temperature yesterday: 88 °F

High & Low Weather Summary for the Past Weeks

 TemperatureHumidityPressure
High93 °F (Apr 15, 2:00 PM)100% (Apr 20, 2:00 PM)29.92 "Hg (Apr 20, 2:00 PM)
Low79 °F (Apr 17, 7:00 AM)59% (Apr 15, 11:00 AM)29.68 "Hg (Apr 24, 4:00 PM)
Average87 °F77%29.80 "Hg
* Reported Apr 14 8:00 AM — Apr 29 8:00 AM, Diego Garcia, Weather by CustomWeather, © 2016

Note: Actual official high and low records may vary slightly from our data, if they occured in-between our weather recording intervals... More about our weather records

Advertising

Diego Garcia Weather History for the Previous 24 Hours

Scroll right to see more
 ConditionsComfort  
Time TempWeatherWind HumidityBarometerVisibility
8:00 AM
Fri, Apr 29
86 °FPartly sunny.2 mph79%29.80 "HgN/A
7:00 AM84 °FPartly sunny.1 mph84%29.77 "HgN/A
6:00 AM84 °FPassing clouds.No wind79%29.77 "HgN/A
5:00 AM84 °FPartly cloudy.3 mph74%29.74 "HgN/A
4:00 AM84 °FPassing clouds.3 mph74%29.74 "HgN/A
3:00 AM86 °FPassing clouds.2 mph79%29.74 "HgN/A
2:00 AM86 °FPartly cloudy.2 mph79%29.77 "HgN/A
1:00 AM88 °FPassing clouds.2 mph75%29.80 "HgN/A
12:00 AM88 °FPassing clouds.1 mph75%29.80 "HgN/A
11:00 PM
Thu, Apr 28
86 °FPassing clouds.1 mph79%29.80 "HgN/A
10:00 PM86 °FPassing clouds.2 mph79%29.80 "HgN/A
9:00 PM86 °FPassing clouds.1 mph79%29.80 "HgN/A
8:00 PM86 °FPassing clouds.3 mph79%29.77 "HgN/A
7:00 PM86 °FPartly sunny.6 mph79%29.77 "HgN/A
6:00 PM88 °FBroken clouds.3 mph75%29.74 "HgN/A
5:00 PM90 °FScattered clouds.3 mph71%29.74 "HgN/A
4:00 PM91 °FPassing clouds.5 mph67%29.74 "HgN/A
3:00 PM90 °FScattered clouds.5 mph71%29.74 "HgN/A
2:00 PM90 °FScattered clouds.5 mph71%29.77 "HgN/A
1:00 PM90 °FScattered clouds.5 mph71%29.80 "HgN/A
11:00 AM91 °FPassing clouds.2 mph71%29.80 "HgN/A
10:00 AM90 °FPassing clouds.2 mph71%29.80 "HgN/A
Weather by CustomWeather, © 2016

See weather overviewHow to use our weather pages